Temperature
23 20 20 20 21 21 21 21 21 21 22 22 21 20 20 21 21 20 20 21 21 21 21 20 20 20 20 19 19 19 18 18 18 17 17 17 17 17 16 16 16 16 16 16
20 20 21 22 22 22 22 21 21 21 22 22 20 20 20 20 20 21 21 21 20 20 20 20 20 20 20 19 19 19 18 18 18 17 17 17 17 17 16 16 16 16 16 15
20 21 23 23 22 22 22 21 21 21 22 21 21 19 19 20 21 21 21 21 21 20 20 20 20 20 20 19 19 19 18 18 18 17 17 17 17 16 16 16 16 16 15 15
21 22 23 23 22 22 21 22 22 22 20 19 20 18 19 19 19 19 20 20 20 20 20 20 20 20 19 19 19 18 18 18 17 17 17 17 17 16 16 16 16 15 15 15
21 22 22 22 22 22 21 22 22 22 20 19 19 18 18 19 19 19 19 20 21 20 20 20 20 20 19 19 19 18 18 18 17 17 17 17 16 16 16 16 15 15 15 15
21 22 23 22 23 23 22 21 20 18 18 18 19 18 18 18 19 19 19 20 20 20 20 20 20 19 19 19 19 18 18 17 17 17 17 16 16 16 16 15 15 15 15 15
21 22 22 23 22 22 21 18 17 18 17 17 19 18 18 19 20 20 19 20 20 20 20 20 19 19 19 19 18 18 18 17 17 17 16 16 16 16 16 15 15 15 15 15
19 19 21 22 22 21 20 18 18 18 18 18 19 18 19 20 20 21 21 20 20 20 20 20 19 19 19 18 18 18 17 17 17 17 16 16 16 16 16 15 15 15 15 15
19 19 21 22 22 22 20 18 18 17 18 18 18 19 20 20 19 19 19 19 19 20 19 19 19 19 18 18 18 18 17 17 17 16 16 16 16 16 16 15 15 15 15 15
20 20 21 22 22 22 21 19 16 17 18 17 18 18 18 19 18 18 18 18 19 19 19 19 19 19 18 18 18 17 17 17 17 16 16 16 16 16 15 15 15 15 15 14
19 19 19 20 20 20 20 20 17 16 16 17 17 17 19 18 18 18 18 19 19 19 19 19 19 18 18 18 18 17 17 17 16 16 16 16 16 15 15 15 15 15 14 14
18 16 17 18 19 20 20 19 17 17 17 16 16 17 19 18 18 18 18 19 19 19 19 19 18 18 18 18 17 17 17 16 16 16 16 16 15 15 15 15 15 15 14 14
17 16 16 17 18 19 20 19 18 16 15 15 16 17 18 17 17 18 18 18 18 18 18 18 18 18 18 17 17 17 17 16 16 16 16 15 15 15 15 15 15 14 14 14
17 15 16 17 17 18 18 19 19 17 15 16 16 17 17 16 16 17 17 18 18 18 18 18 18 18 17 17 17 17 17 16 16 16 15 15 15 15 15 15 14 14 14 14
16 16 17 17 18 18 18 19 19 18 16 16 17 16 16 16 16 16 17 17 17 17 17 17 17 17 17 17 17 17 16 16 16 16 15 15 15 15 14 14 14 14 14 14
15 16 17 17 18 18 18 18 18 18 17 17 17 16 16 16 16 16 16 16 16 16 16 17 17 17 17 17 17 17 16 16 16 15 15 15 15 14 14 14 14 14 14 13
14 15 15 15 16 17 17 17 17 17 17 17 16 16 15 15 15 15 16 15 15 15 16 16 16 16 16 16 16 16 16 16 15 15 15 15 14 14 14 14 14 13 13 13
14 14 13 14 16 16 16 17 18 17 17 17 16 15 15 15 16 16 16 16 15 15 15 15 16 16 16 16 16 16 16 15 15 15 15 14 14 14 14 13 13 13 13 13
14 14 13 13 14 15 16 17 17 17 16 16 15 15 15 15 15 15 15 15 15 15 15 15 15 15 15 16 16 15 15 15 15 15 14 14 14 14 13 13 13 12 12 12
13 13 13 13 14 14 15 16 17 16 15 15 15 15 15 15 12 13 15 15 15 15 15 15 15 15 15 15 15 15 15 15 15 14 14 14 14 13 13 13 12 12 12 12
13 12 12 12 13 13 14 16 17 15 14 15 15 15 15 14 14 15 15 15 14 14 14 14 14 14 14 14 14 14 14 14 14 14 14 13 13 13 13 12 12 12 12 12
12 12 12 11 12 13 15 15 14 14 15 16 15 15 15 15 15 14 14 14 14 14 14 14 14 14 13 13 13 13 13 13 13 13 13 13 13 12 12 12 12 12 11 11
12 12 11 12 13 14 15 15 16 16 15 15 15 15 15 15 14 14 14 14 13 13 13 13 13 13 13 13 12 12 12 13 13 13 13 13 12 12 12 12 12 11 11 11
12 12 11 11 12 13 14 15 15 15 15 15 15 15 14 14 14 14 13 13 13 13 13 13 12 12 12 12 12 12 12 12 12 12 12 12 12 12 12 11 11 11 11 11
12 12 11 11 12 13 14 14 15 15 15 14 14 14 14 14 13 13 13 13 12 12 12 12 12 12 12 12 12 11 11 11 11 11 11 11 11 11 11 11 11 11 11 11
11 11 11 11 13 12 13 14 14 14 14 14 13 13 13 13 13 12 12 12 12 12 11 11 11 11 11 11 11 11 11 11 11 11 11 11 11 10 10 10 10 10 10 10
Wind_Speed
1 3 3 6 6 5 3 2 3 5 4 3 5 5 6 7 6 7 7 7 7 8 7 6 7 7 8 7 7 7 6 6 5 4 3 2 2 1 1 2 4 5 6 7
3 3 8 6 4 2 2 1 2 3 3 2 3 5 5 7 8 9 10 9 9 7 5 5 6 6 7 8 7 7 6 6 5 4 3 3 3 2 2 1 3 5 6 6
6 6 5 3 2 1 1 2 4 3 1 2 1 4 4 4 4 5 7 8 9 11 10 8 7 6 7 8 8 7 6 6 4 4 3 3 3 3 2 2 1 1 4 5
4 5 3 1 2 2 3 4 4 2 2 3 1 3 6 5 4 6 7 7 8 10 9 9 8 7 8 8 7 6 7 6 5 5 5 5 4 2 1 1 1 1 2 3
4 3 3 3 4 4 5 3 1 1 2 1 1 2 6 1 4 7 8 9 9 10 10 10 10 9 7 7 7 7 6 6 5 5 6 6 4 2 1 1 2 1 1 1
5 4 4 4 3 3 2 4 5 5 4 2 5 4 5 5 8 7 7 8 8 9 9 9 8 7 6 6 7 7 7 5 5 6 6 6 6 4 4 2 2 1 0 0
4 4 2 2 0 3 4 5 4 4 3 5 3 3 7 7 6 8 9 8 7 8 9 9 9 8 7 7 7 6 7 5 5 5 5 6 6 6 5 4 3 2 1 1
2 5 4 2 4 4 3 7 6 3 4 5 2 3 5 4 1 4 6 7 7 7 8 9 9 9 8 7 7 6 6 5 5 5 5 4 5 4 4 4 4 3 3 3
4 5 4 2 2 6 4 3 6 6 2 2 3 3 4 4 4 4 4 5 6 7 8 9 8 8 7 7 6 7 6 5 5 5 5 4 4 4 4 4 4 3 2 2
4 2 3 3 2 0 5 6 5 4 2 2 3 3 3 3 3 2 2 3 5 5 7 7 8 8 7 6 5 5 6 6 5 5 5 5 4 4 4 4 3 3 3 2
3 3 4 2 1 3 1 2 4 4 4 4 3 5 4 6 5 4 4 4 5 6 6 6 7 7 6 6 5 5 4 4 4 4 4 4 4 4 4 4 4 4 3 3
2 4 2 5 5 3 4 4 6 4 3 3 3 5 4 3 4 4 3 3 3 4 5 5 5 5 5 5 4 5 5 4 5 5 4 4 4 3 3 4 4 4 4 4
4 5 2 5 5 4 0 2 4 5 4 4 3 4 3 3 3 2 2 2 2 3 4 4 4 4 5 5 5 5 5 5 5 4 4 4 3 4 4 4 4 4 4 3
4 4 5 7 6 3 4 3 3 5 4 4 6 5 2 2 2 1 2 2 3 2 3 3 3 4 5 5 5 5 5 6 5 4 4 5 5 5 5 4 4 4 4 4
4 3 3 5 5 3 4 5 4 4 6 7 6 5 4 3 2 1 2 4 4 3 2 1 2 3 3 4 4 5 5 4 5 4 5 5 5 5 4 4 4 4 4 4
3 2 0 3 3 2 3 4 4 4 4 4 3 2 3 1 3 4 4 5 4 2 1 1 1 1 3 4 5 4 4 4 4 4 5 5 4 4 4 4 4 3 3 3
2 3 2 3 5 3 4 5 4 3 3 5 5 5 2 3 3 3 3 4 3 2 2 2 2 2 3 4 5 5 5 4 4 4 4 4 4 4 4 4 3 4 4 3
5 4 3 1 2 3 6 4 3 4 1 2 3 3 4 4 3 3 3 4 2 2 2 2 3 4 4 3 3 3 3 3 4 4 4 4 4 4 4 4 4 4 3 4
5 6 3 3 2 5 5 4 2 3 1 1 4 4 3 5 5 3 1 2 2 0 1 1 2 3 3 3 2 2 3 3 4 5 5 5 5 5 5 5 5 4 4 4
4 4 4 3 3 5 6 5 2 4 1 2 4 5 4 5 2 3 2 0 1 1 2 2 3 4 4 4 2 1 2 3 5 6 6 6 5 5 5 6 5 4 4 5
2 2 3 4 4 6 6 4 2 3 5 3 4 4 4 3 4 4 2 0 0 1 2 2 3 3 4 4 2 2 2 4 6 5 4 4 5 5 5 5 4 4 4 4
6 4 4 4 4 7 4 2 4 5 3 2 3 3 3 3 2 2 1 0 1 2 2 3 3 4 4 4 3 3 4 5 4 3 3 4 4 4 3 4 3 4 4 4
6 7 6 7 6 4 2 3 3 4 4 2 2 2 4 3 2 2 1 1 1 2 2 2 2 3 4 4 3 4 6 4 3 2 3 3 3 3 3 4 4 4 4 4
3 2 4 2 4 2 1 1 1 2 3 2 3 3 4 3 3 2 2 1 1 2 3 2 2 3 4 4 3 3 5 3 3 3 3 3 3 3 3 3 4 4 4 5
5 3 3 3 3 1 2 2 1 1 2 2 2 2 3 3 2 3 2 3 3 2 3 2 2 3 5 5 4 4 3 3 2 3 3 3 2 3 3 3 3 5 5 7
5 6 6 6 7 5 5 5 3 3 2 2 2 1 1 2 3 3 3 3 3 3 3 3 3 4 5 4 4 4 3 2 2 2 3 2 2 2 2 2 3 4 4 6
Wind_Direction
345 93 222 231 215 213 209 212 247 244 231 177 210 224 218 204 185 181 189 188 182 190 190 174 162 151 146 147 147 155 151 155 144 136 131 130 135 125 91 98 110 115 119 123
30 249 239 237 243 228 218 229 264 276 256 191 225 244 230 209 204 191 187 191 185 184 170 168 156 149 154 158 157 159 161 162 157 158 161 158 149 142 124 95 97 112 122 123
203 239 245 231 242 228 291 199 213 225 328 4 86 320 271 247 221 200 191 187 179 177 175 172 164 158 154 159 164 160 163 158 160 151 122 99 73 56 49 59 68 90 123 125
230 248 242 235 253 201 239 236 205 184 100 277 163 268 276 246 227 210 202 190 182 181 175 172 168 164 165 172 166 158 159 158 155 140 133 134 134 141 185 175 150 53 101 119
252 225 213 229 237 203 222 242 213 197 146 306 285 186 277 240 220 221 209 199 190 182 176 173 173 172 166 164 159 159 155 154 148 142 142 139 132 150 145 129 130 122 71 113
244 238 204 204 222 206 182 42 35 51 78 284 237 184 260 229 216 208 203 196 188 179 174 171 169 158 155 153 153 155 153 155 157 154 154 152 150 148 136 140 159 177 232 333
304 296 260 171 61 352 76 79 31 4 8 257 246 182 248 252 225 194 184 183 181 172 167 165 161 158 158 155 158 156 154 161 165 159 164 165 161 159 161 168 173 175 191 222
233 283 261 197 177 190 168 141 153 199 231 277 323 226 267 275 203 148 156 158 159 162 163 163 165 161 159 159 161 160 164 169 170 169 173 168 163 163 170 173 175 184 199 212
193 256 280 240 188 152 143 172 175 154 216 269 292 298 328 22 59 90 121 139 157 170 171 169 163 159 160 160 167 176 173 172 176 177 170 164 168 170 177 178 179 185 198 204
168 233 290 313 45 44 155 153 98 114 168 270 293 255 235 226 200 168 154 176 180 174 173 173 168 166 167 167 172 179 176 181 184 180 177 174 180 181 181 175 181 188 197 198
132 157 300 353 197 223 144 116 115 128 159 167 245 271 253 209 194 184 199 196 189 179 175 174 176 175 172 171 170 169 176 179 183 187 189 180 189 189 181 184 193 191 188 188
126 129 233 264 280 229 174 167 141 154 225 179 183 270 314 164 158 158 169 179 183 176 172 166 163 164 169 174 174 178 183 189 198 193 188 197 201 194 187 195 203 192 190 195
116 112 82 338 337 353 23 164 151 141 136 164 175 256 350 51 86 120 131 135 140 134 139 145 150 167 182 189 194 197 200 206 208 193 185 194 199 200 206 208 203 193 193 194
113 117 164 196 221 241 272 271 187 143 165 209 215 225 310 20 57 58 82 97 116 126 129 145 174 192 200 201 204 207 213 208 206 198 192 196 206 209 213 210 200 198 195 190
97 146 209 231 241 221 241 257 227 188 190 197 222 201 230 209 179 139 109 94 82 78 76 131 216 223 218 212 216 214 216 211 199 192 202 211 212 210 207 206 203 201 195 196
79 140 350 288 278 293 281 272 242 216 199 200 183 227 238 159 104 81 78 87 84 65 39 6 339 302 253 234 229 222 218 209 190 196 218 221 211 205 207 212 202 196 197 199
137 130 122 266 299 360 294 261 217 197 203 180 199 223 184 106 111 115 103 94 89 70 34 13 336 282 266 248 229 218 217 201 190 203 225 227 214 208 213 216 196 199 203 200
157 140 144 211 15 237 247 269 190 148 127 156 152 161 159 153 136 116 115 109 88 59 30 353 334 314 292 274 261 229 198 190 198 210 221 225 216 213 209 202 205 210 204 203
162 151 140 145 210 267 286 292 206 164 262 269 154 143 119 115 79 28 22 118 143 159 286 304 312 312 311 301 282 234 203 203 208 218 224 224 220 214 208 208 213 212 203 208
88 112 134 147 185 233 252 282 285 118 241 282 154 155 149 111 95 257 283 6 6 355 358 359 357 1 340 316 306 251 227 217 228 230 226 223 219 216 216 215 215 214 207 212
91 80 153 179 213 254 264 288 72 148 233 232 160 158 155 164 193 210 222 169 12 356 351 6 12 0 335 326 341 314 269 247 250 251 232 226 220 217 215 213 213 209 207 211
174 172 188 166 197 248 274 125 162 208 202 164 155 158 157 168 172 177 167 120 9 1 347 359 8 345 334 341 351 326 301 284 286 272 240 232 227 225 218 205 217 210 201 210
189 188 184 188 207 233 211 176 189 164 155 161 162 178 154 151 170 177 178 232 318 324 318 330 342 333 332 332 334 316 306 309 306 287 254 248 247 237 221 207 211 210 203 212
260 159 146 198 245 233 234 199 155 148 158 173 168 161 155 167 189 203 210 241 273 290 301 313 331 320 314 315 316 305 305 314 319 294 268 256 243 250 244 226 218 215 210 217
221 164 157 214 244 267 285 236 190 134 118 112 124 159 171 173 206 221 231 247 255 278 291 294 290 291 293 301 311 309 309 317 319 306 287 269 253 243 244 244 233 228 227 221
208 184 183 221 218 200 228 223 192 165 168 164 151 177 226 197 214 232 239 245 250 268 282 286 279 282 291 301 307 309 310 315 317 316 301 277 263 252 246 254 281 272 263 256
Height
1510 1515 1519 1516 1513 1514 1515 1518 1521 1516 1509 1512 1515 1515 1512 1511 1512 1513 1513 1515 1516 1517 1519 1521 1522 1523 1525 1526 1527 1528 1528 1529 1530 1531 1531 1531 1531 1531 1531 1531 1531 1531 1530 1530
1515 1517 1510 1507 1507 1509 1512 1518 1519 1514 1508 1511 1514 1514 1510 1509 1509 1509 1510 1511 1513 1515 1517 1519 1520 1522 1523 1524 1526 1527 1528 1529 1529 1530 1530 1531 1531 1531 1531 1531 1531 1531 1530 1530
1516 1511 1505 1506 1509 1511 1513 1516 1516 1515 1511 1510 1515 1520 1513 1508 1507 1507 1508 1509 1511 1512 1514 1516 1518 1520 1521 1523 1524 1526 1527 1528 1529 1529 1530 1530 1530 1531 1531 1531 1531 1530 1530 1529
1510 1505 1504 1506 1508 1509 1516 1508 1508 1510 1518 1524 1519 1533 1517 1509 1507 1506 1506 1507 1508 1510 1512 1514 1516 1518 1520 1522 1523 1525 1526 1527 1528 1528 1529 1529 1529 1530 1530 1530 1530 1530 1529 1529
1510 1504 1505 1507 1506 1505 1509 1504 1506 1509 1517 1524 1522 1530 1523 1510 1510 1505 1504 1504 1506 1508 1510 1512 1514 1516 1518 1520 1522 1523 1525 1526 1526 1527 1528 1528 1528 1529 1529 1529 1529 1529 1528 1528
1504 1501 1501 1502 1500 1501 1502 1506 1510 1517 1524 1534 1523 1529 1525 1513 1506 1501 1501 1502 1504 1506 1508 1510 1512 1515 1517 1519 1521 1522 1523 1524 1525 1526 1527 1527 1527 1528 1528 1528 1528 1528 1527 1527
1509 1503 1499 1499 1503 1503 1505 1521 1536 1537 1542 1537 1519 1523 1519 1502 1497 1496 1497 1499 1502 1504 1506 1508 1510 1512 1515 1517 1519 1521 1522 1523 1524 1525 1525 1526 1526 1527 1527 1527 1527 1526 1526 1526
1519 1518 1502 1498 1501 1506 1508 1518 1536 1544 1544 1535 1520 1522 1511 1498 1495 1495 1496 1498 1500 1502 1504 1507 1509 1511 1514 1516 1518 1519 1520 1521 1522 1523 1524 1524 1525 1525 1526 1526 1526 1525 1525 1525
1516 1515 1499 1496 1496 1500 1508 1515 1515 1528 1530 1535 1528 1517 1506 1499 1498 1498 1498 1499 1500 1502 1504 1505 1507 1510 1513 1515 1516 1518 1519 1520 1521 1521 1522 1523 1523 1524 1524 1524 1524 1524 1523 1523
1506 1512 1503 1497 1496 1498 1501 1507 1520 1527 1536 1541 1530 1523 1519 1507 1503 1501 1500 1500 1500 1501 1503 1504 1506 1509 1511 1513 1515 1516 1517 1518 1519 1520 1520 1521 1521 1522 1522 1522 1522 1522 1522 1521
1502 1512 1509 1504 1504 1506 1504 1508 1515 1526 1529 1538 1540 1529 1504 1502 1500 1501 1500 1500 1500 1500 1501 1503 1505 1507 1510 1512 1513 1514 1515 1516 1517 1518 1518 1519 1519 1519 1520 1520 1520 1520 1519 1519
1502 1512 1517 1510 1501 1498 1501 1505 1513 1526 1528 1530 1535 1527 1500 1498 1498 1499 1499 1499 1499 1500 1501 1502 1504 1506 1508 1510 1511 1512 1513 1514 1514 1515 1516 1517 1517 1517 1517 1517 1517 1517 1517 1517
1501 1512 1523 1521 1515 1505 1503 1503 1507 1515 1523 1529 1532 1523 1502 1500 1499 1499 1499 1499 1499 1500 1501 1502 1504 1505 1506 1507 1509 1510 1510 1511 1512 1513 1513 1514 1514 1514 1514 1514 1514 1514 1514 1514
1498 1510 1519 1523 1518 1510 1507 1504 1503 1512 1523 1524 1520 1514 1507 1503 1501 1500 1500 1499 1500 1501 1501 1502 1503 1504 1505 1505 1507 1507 1508 1509 1509 1510 1510 1510 1510 1511 1511 1511 1511 1511 1511 1511
1499 1509 1508 1507 1504 1504 1504 1503 1501 1506 1510 1516 1511 1509 1506 1503 1501 1500 1500 1500 1500 1501 1501 1502 1502 1503 1503 1504 1504 1505 1505 1506 1506 1506 1507 1507 1507 1507 1507 1508 1507 1507 1507 1507
1502 1507 1507 1507 1502 1502 1503 1500 1499 1500 1502 1505 1505 1506 1500 1500 1500 1500 1500 1500 1500 1501 1501 1501 1501 1501 1502 1502 1501 1502 1502 1502 1503 1503 1503 1503 1503 1503 1503 1504 1504 1504 1503 1503
1505 1508 1513 1515 1507 1504 1509 1501 1498 1499 1498 1500 1505 1504 1499 1500 1500 1500 1500 1500 1500 1500 1500 1500 1499 1499 1499 1499 1499 1499 1498 1499 1499 1499 1499 1499 1499 1499 1499 1499 1499 1499 1499 1499
1504 1508 1515 1516 1513 1518 1507 1494 1493 1495 1496 1496 1496 1497 1497 1498 1499 1500 1500 1500 1500 1500 1499 1498 1498 1497 1496 1496 1496 1496 1496 1495 1495 1495 1495 1495 1495 1495 1494 1495 1495 1495 1495 1495
1497 1504 1514 1519 1519 1514 1502 1494 1493 1496 1499 1495 1496 1496 1497 1497 1499 1500 1500 1500 1500 1499 1498 1497 1496 1495 1494 1493 1492 1492 1492 1491 1491 1491 1491 1490 1490 1490 1490 1490 1490 1490 1490 1490
1497 1500 1511 1516 1517 1518 1504 1492 1490 1494 1502 1496 1495 1496 1496 1496 1502 1502 1499 1499 1498 1498 1497 1495 1494 1493 1491 1490 1489 1488 1487 1487 1486 1486 1486 1486 1486 1485 1485 1485 1485 1485 1486 1485
1504 1507 1511 1515 1516 1509 1497 1491 1491 1504 1503 1495 1493 1494 1495 1496 1497 1498 1497 1497 1497 1496 1495 1494 1492 1491 1489 1488 1486 1485 1484 1483 1482 1481 1481 1481 1481 1480 1480 1480 1481 1481 1481 1481
1503 1508 1511 1513 1515 1510 1492 1491 1495 1496 1492 1492 1492 1493 1494 1494 1495 1495 1495 1495 1494 1493 1493 1491 1490 1489 1487 1486 1484 1482 1481 1479 1478 1477 1476 1476 1476 1476 1476 1476 1476 1476 1476 1476
1497 1497 1499 1501 1501 1492 1489 1489 1490 1490 1490 1491 1492 1492 1492 1493 1493 1493 1493 1493 1492 1491 1491 1489 1488 1486 1485 1483 1482 1480 1478 1476 1475 1473 1472 1471 1471 1471 1471 1471 1471 1471 1471 1472
1491 1490 1493 1495 1492 1489 1489 1489 1489 1489 1489 1490 1490 1490 1491 1490 1491 1491 1491 1490 1490 1489 1488 1486 1485 1483 1482 1480 1479 1477 1475 1473 1471 1469 1468 1467 1467 1466 1466 1466 1466 1466 1466 1466
1487 1487 1490 1491 1489 1488 1487 1487 1487 1487 1488 1488 1488 1489 1488 1488 1488 1488 1488 1488 1487 1486 1485 1483 1482 1480 1479 1477 1475 1474 1472 1470 1468 1466 1464 1463 1462 1462 1461 1461 1461 1461 1462 1462
1483 1484 1487 1487 1484 1485 1485 1485 1485 1485 1485 1485 1486 1486 1486 1486 1486 1486 1485 1485 1484 1483 1482 1480 1479 1477 1475 1474 1472 1470 1469 1467 1465 1462 1461 1460 1458 1457 1457 1457 1456 1457 1457 1457